User: anonymous   Login
Location: ??????
(56.0120°N, 39.1740°E)
Time: 02:55:29
(UTC+00:00)
Language:

Cosmos 921 Rocket - Orbit

View from above orbital plane
View from above orbital plane
View from above satellite
View from above satellite

Ground track
Ground track

The orbit is defined by the following mean orbital elements,

1 10096U          26158.76016186 +.00000000 +00000-0 +75749-4 0 00002
2 10096  75.8332 289.5068 0040134 126.5322 233.9577 14.92124917    03
Epoch (UTC): 07 June 2026 18:14:37
Eccentricity: 0.0040134
inclination: 75.8332°
perigee height: 563 km
apogee height: 619 km
right ascension of ascending node: 289.5068°
argument of perigee: 126.5322°
revolutions per day: 14.92124917
mean anomaly at epoch: 233.9577°

The dashed part of the orbit path shows where the satellite is in the earth's shadow,  

DLR